COSMOS 374 DEB *

Satellite information

Favourite Embed

Satellite Type and Status

DEBRISIN ORBIT

Key statistics

Satellite COSMOS 374 DEB * at a glance.

Uptime

19920

Days in orbit

Revolutions

≈ 13.1

Per day

Orbit

LEO

Low Earth Orbit

Inclination

63.3

Latest

Satellite identification and parameters

Extended collection of information and parameters for COSMOS 374 DEB *.

Object identification

Identified? True

Debris? True

Object name: COSMOS 374 DEB *

International designator: 1970-089Z

Object number (NORAD): 5028

Object ID (CCSDS): 5028

Country: COMMONWEALTH OF INDEPENDENT STATES (CIS)

Current information (Y/N): Y

RCS size: SMALL

Orbital parameters

Period: 109.635 minutes

Inclination: 63.3126 deg

SMA: 7587.993 km

Apoapsis: 1693.26 km

Periapsis: 726.457 km

RAAN: 168.318 deg

Eccentricy: 0.0637061

Argument of periapsis: 284.0127 deg

Mean anomaly: 69.0885 deg

Mean motion: 13.13446442 rev/day

Mean motion (dot): 0.00000643 rev/day2

B* drag term: 0.00070831 1/REarth

Two-line elements (TLE)

Creation date: May 7, 2025, 3:14 a.m.

Reference frame: TEME

Reference center: EARTH

Epoch: May 6, 2025, 9:37 a.m. UTC

TLE line 0: 0 COSMOS 374 DEB *

TLE line 1: 1 05028U 70089Z 25126.40122773 .00000643 00000-0 70831-3 0 9996

TLE line 2: 2 05028 63.3126 168.3180 0637061 284.0127 69.0885 13.13446442553216

Live tracking on map

Real-time ground track for satellite COSMOS 374 DEB *.

In-orbit conjunctions

A list of the most updated potential collisions computed for object COSMOS 374 DEB *.

Target Orbit TCA Probability of collision Miss distance Type
MINOTAUR R/B SSO 2025-02-09 15:35:47 0.000288166 598.0 (m) ROCKET BODY
COSMOS 1190 LEO 2024-10-29 13:08:11 0.003298196 74.0 (m) PAYLOAD

Associated space launch

The I2P satellites were the first soviet coorbital ASAT system.

COSMOS 374 DEB * was lifted into orbit during the mission ‘Tsiklon-2 | I2P 4’, on board a Tsiklon-2 space rocket.

The launch took place on Oct. 23, 1970, 4:42 a.m. from 90/20.

For more information about the launch, click the button.

Launch to space Tsiklon-2 | I2P 4
Tsiklon-2 | I2P 4

Agency: N/A

Status: Launch Successful

Launch date: Oct. 23, 1970, 4:42 a.m. UTC

Rocket: Tsiklon-2

Launch pad: 90/20

Location: Baikonur Cosmodrome, Republic of Kazakhstan

...

Latest news about this satellite

There are no fresh news available about this satellite. Check back as we update our databases every day.


Newsletter sign-up

Weekly statistics, charts and insights to help you stay on top of the space industry.